Location: Carrières
(48.9495°N, 2.0407°E)
Time: 11:52:48
(UTC+00:00)

NOSS 2-1 (E) - Pass Details

Date: 28 January 2023
Orbit: 400 x 1778 km, 63.3° (Epoch: 09 March)

Event Time Altitude Azimuth Distance (km) Brightness Sun altitude
Rises 18:03:12 0° 318° (NW) 2,681 7.3 -13.3°
Reaches altitude 10° 18:05:06 10° 320° (NW) 1,910 6.4 -13.6°
Maximum altitude 18:09:22 79° 47° (NE) 742 3.8 -14.3°
Drops below altitude 10° 18:15:27 10° 135° (SE) 2,686 6.5 -15.3°
Sets 18:18:31 0° 137° (SE) 3,875 7.3 -15.8°
